DW3390 Weather Reports


time (UTC)temp
F
wind
direction
speed
knots
gust
knots
rain 1hr
in
rain 24hr
in
rain mn
in
humidity
%
barometer
mb
20260510211043 44 50 0.0 2.6 0.00 0.00 0.00 70 1012.8
20260510210540 44 65 0.9 2.6 0.00 0.00 0.00 70 1012.8
20260510210049 44 96 0.0 1.7 0.00 0.00 0.00 69 1012.9
20260510205540 44 105 0.0 1.7 0.00 0.00 0.00 69 1012.8
20260510205039 44 55 0.0 1.7 0.00 0.00 0.00 69 1012.9
20260510204551 45 55 0.9 2.6 0.00 0.00 0.00 69 1012.9
20260510204037 45 34 0.9 2.6 0.00 0.00 0.00 68 1012.9
20260510203537 45 47 0.9 2.6 0.00 0.00 0.00 68 1012.9
20260510203038 45 71 0.9 3.5 0.00 0.00 0.00 68 1013.0
20260510202535 46 49 0.0 3.5 0.00 0.00 0.00 67 1013.0
20260510202035 46 54 0.9 3.5 0.00 0.00 0.00 67 1012.9
20260510201539 46 67 0.9 5.2 0.00 0.00 0.00 67 1012.9
20260510201035 46 39 1.7 5.2 0.00 0.00 0.00 66 1013.0
20260510200532 46 55 1.7 4.3 0.00 0.00 0.00 66 1013.0
20260510200031 47 52 1.7 4.3 0.00 0.00 0.00 66 1013.0
20260510195531 47 71 1.7 7.0 0.00 0.00 0.00 65 1013.0
20260510195030 47 90 2.6 7.0 0.00 0.00 0.00 65 1013.0
20260510194533 47 35 1.7 5.2 0.00 0.00 0.00 65 1013.0
20260510194030 48 43 3.5 6.1 0.00 0.00 0.00 64 1013.0
20260510193531 48 80 2.6 6.1 0.00 0.00 0.00 64 1013.0
20260510193030 48 78 2.6 8.7 0.00 0.00 0.00 63 1013.0
20260510192529 48 59 3.5 10.4 0.00 0.00 0.00 63 1012.9
20260510192032 48 130 3.5 10.4 0.00 0.00 0.00 62 1013.0
20260510191532 49 62 3.5 8.7 0.00 0.00 0.00 62 1013.0
20260510191029 49 108 2.6 8.7 0.00 0.00 0.00 61 1013.1
20260510190528 49 58 2.6 11.3 0.00 0.00 0.00 61 1013.1
20260510190031 49 52 5.2 11.3 0.00 0.00 0.00 61 1013.0
20260510185527 50 55 2.6 7.8 0.00 0.00 0.00 61 1013.0
20260510185027 50 55 1.7 8.7 0.00 0.00 0.00 60 1013.1
20260510184533 50 36 3.5 8.7 0.00 0.00 0.00 60 1013.1
20260510184027 50 58 3.5 6.1 0.00 0.00 0.00 60 1013.0
20260510183527 50 62 1.7 7.0 0.00 0.00 0.00 60 1013.0
20260510183026 50 82 2.6 7.0 0.00 0.00 0.00 60 1013.0
20260510182526 51 105 2.6 7.0 0.00 0.00 0.00 59 1013.1
20260510182026 51 50 2.6 7.0 0.00 0.00 0.00 59 1013.1
20260510181557 51 84 1.7 7.8 0.00 0.00 0.00 58 1013.1
20260510181026 51 41 3.5 10.4 0.00 0.00 0.00 58 1013.0
20260510180525 51 130 4.3 10.4 0.00 0.00 0.00 58 1013.1
20260510180035 51 44 3.5 10.4 0.00 0.00 0.00 57 1013.1
20260510175524 51 42 2.6 10.4 0.00 0.00 0.00 58 1013.1
20260510175024 51 71 2.6 8.7 0.00 0.00 0.00 58 1013.1
20260510174533 51 46 2.6 9.6 0.00 0.00 0.00 57 1013.1
20260510174024 51 47 3.5 10.4 0.00 0.00 0.00 58 1013.2
20260510173524 52 40 6.1 10.4 0.00 0.00 0.00 57 1013.3
20260510173023 52 153 5.2 10.4 0.00 0.00 0.00 56 1013.2
20260510172524 53 5 3.5 11.3 0.00 0.00 0.00 55 1013.3
20260510172024 53 44 2.6 12.2 0.00 0.00 0.00 54 1013.3
20260510171523 54 62 4.3 12.2 0.00 0.00 0.00 53 1013.3
20260510171022 54 84 6.1 13.9 0.00 0.00 0.00 53 1013.3
20260510170523 53 71 3.5 10.4 0.00 0.00 0.00 53 1013.2
20260510170021 53 29 4.3 8.7 0.00 0.00 0.00 52 1013.4
20260510165520 52 51 1.7 9.6 0.00 0.00 0.00 55 1013.4
20260510165019 53 55 5.2 12.2 0.00 0.00 0.00 54 1013.5
20260510164522 53 95 4.3 11.3 0.00 0.00 0.00 54 1013.5
20260510164017 53 59 2.6 9.6 0.00 0.00 0.00 54 1013.6
20260510163518 54 38 4.3 9.6 0.00 0.00 0.00 53 1013.6
20260510163017 54 46 4.3 9.6 0.00 0.00 0.00 53 1013.7
20260510162516 54 40 2.6 16.5 0.00 0.00 0.00 54 1013.8
20260510162018 54 47 6.1 16.5 0.00 0.00 0.00 53 1013.7
20260510161516 54 43 3.5 7.8 0.00 0.00 0.00 52 1013.8
20260510161016 54 46 4.3 11.3 0.00 0.00 0.00 51 1013.8
20260510160515 54 40 5.2 12.2 0.00 0.00 0.00 50 1014.0
20260510160020 54 78 5.2 12.2 0.00 0.00 0.00 53 1014.1
20260510155515 54 72 5.2 10.4 0.00 0.00 0.00 53 1014.0
20260510155014 54 44 2.6 8.7 0.00 0.00 0.00 52 1014.0
20260510154513 54 65 4.3 12.2 0.00 0.00 0.00 52 1014.1
20260510154013 55 50 3.5 12.2 0.00 0.00 0.00 52 1014.1
20260510153512 55 55 3.5 10.4 0.00 0.00 0.00 54 1014.1
20260510153011 54 33 2.6 9.6 0.00 0.00 0.00 55 1014.2
20260510152511 54 40 2.6 10.4 0.00 0.00 0.00 54 1014.2
20260510152011 55 25 4.3 13.9 0.00 0.00 0.00 52 1014.4
20260510151510 55 30 5.2 13.9 0.00 0.00 0.00 55 1014.4
20260510151013 54 61 4.3 12.2 0.00 0.00 0.00 54 1014.3
20260510150509 54 29 4.3 11.3 0.00 0.00 0.00 54 1014.4
20260510150009 55 79 4.3 12.2 0.00 0.00 0.00 55 1014.5
20260510145510 55 54 5.2 11.3 0.00 0.00 0.00 54 1014.5
20260510145007 55 47 4.3 11.3 0.00 0.00 0.00 55 1014.5
20260510144509 54 90 2.6 12.2 0.00 0.00 0.00 56 1014.6
20260510144007 54 57 4.3 12.2 0.00 0.00 0.00 56 1014.7
20260510143507 54 42 3.5 12.2 0.00 0.00 0.00 60 1014.7
20260510143009 54 65 4.3 13.0 0.00 0.00 0.00 58 1014.7
20260510142508 54 53 4.3 13.0 0.00 0.00 0.00 58 1014.8
20260510142006 55 31 4.3 13.0 0.00 0.00 0.00 58 1014.9
20260510141505 55 49 4.3 13.0 0.00 0.00 0.00 58 1014.8
20260510141005 54 61 4.3 10.4 0.00 0.00 0.00 58 1014.7
20260510140503 53 52 4.3 11.3 0.00 0.00 0.00 60 1014.9
20260510140004 54 37 6.1 12.2 0.00 0.00 0.00 58 1015.0
20260510135503 54 26 5.2 12.2 0.00 0.00 0.00 60 1015.0
20260510135002 53 44 6.1 12.2 0.00 0.00 0.00 60 1015.0
20260510134502 53 118 3.5 13.0 0.00 0.00 0.00 60 1015.1
20260510134002 54 78 6.1 13.0 0.00 0.00 0.00 60 1015.1
20260510133502 53 348 4.3 10.4 0.00 0.00 0.00 60 1015.1
20260510133001 53 85 4.3 10.4 0.00 0.00 0.00 61 1015.2
20260510132601 53 42 5.2 10.4 0.00 0.00 0.00 60 1015.3
20260510132100 53 54 4.3 10.4 0.00 0.00 0.00 61 1015.3
20260510131600 54 32 4.3 14.8 0.00 0.00 0.00 61 1015.2
20260510131100 54 66 4.3 14.8 0.00 0.00 0.00 62 1015.2
20260510130559 54 9 5.2 11.3 0.00 0.00 0.00 60 1015.2
20260510130101 53 59 5.2 11.3 0.00 0.00 0.00 61 1015.3
20260510125557 54 38 7.0 11.3 0.00 0.00 0.00 60 1015.4
20260510125057 55 63 2.6 8.7 0.00 0.00 0.00 62 1015.3
20260510124557 54 51 3.5 9.6 0.00 0.00 0.00 61 1015.4
20260510124055 53 35 3.5 13.0 0.00 0.00 0.00 62 1015.5
20260510123555 53 42 4.3 13.0 0.00 0.00 0.00 61 1015.7
20260510123054 53 22 4.3 12.2 0.00 0.00 0.00 62 1015.7
20260510122552 53 14 5.2 12.2 0.00 0.00 0.00 63 1015.7
20260510122051 52 94 2.6 10.4 0.00 0.00 0.00 66 1015.9
20260510121550 51 39 5.2 13.0 0.00 0.00 0.00 64 1016.0
20260510121051 52 42 6.1 12.2 0.00 0.00 0.00 65 1016.0
20260510120548 51 51 4.3 13.9 0.00 0.00 0.00 65 1015.9
20260510120047 51 42 1.7 13.9 0.00 0.00 0.00 66 1016.0
20260510115547 51 52 4.3 13.0 0.00 0.00 0.00 66 1016.0
20260510115046 51 44 6.1 11.3 0.00 0.00 0.00 67 1016.1
20260510114551 51 36 5.2 11.3 0.00 0.00 0.00 67 1016.2
20260510114044 51 67 5.2 10.4 0.00 0.00 0.00 68 1016.3
20260510113544 51 40 4.3 13.9 0.00 0.00 0.00 68 1016.3
20260510113045 51 32 2.6 9.6 0.00 0.00 0.00 69 1016.3
20260510112542 51 38 2.6 11.3 0.00 0.00 0.00 70 1016.4
20260510112045 50 104 5.2 11.3 0.00 0.00 0.00 70 1016.5
20260510111542 50 290 5.2 13.9 0.00 0.00 0.00 70 1016.4
20260510111042 50 99 5.2 13.9 0.00 0.00 0.00 70 1016.5
20260510110540 50 59 5.2 12.2 0.00 0.00 0.00 72 1016.5
20260510110039 50 31 5.2 13.0 0.00 0.00 0.00 72 1016.5
20260510105539 50 68 5.2 13.0 0.00 0.00 0.00 72 1016.7
20260510105039 50 28 5.2 13.0 0.00 0.00 0.00 72 1016.6
20260510104540 50 70 6.1 12.2 0.00 0.00 0.00 73 1016.6
20260510104040 50 36 4.3 11.3 0.00 0.00 0.00 73 1016.7
20260510103537 50 65 6.1 11.3 0.00 0.00 0.00 73 1016.6
20260510103043 50 42 6.1 11.3 0.00 0.00 0.00 73 1016.7
20260510102537 50 67 4.3 13.9 0.00 0.00 0.00 74 1016.7
20260510102037 50 48 3.5 12.2 0.00 0.00 0.00 75 1016.7
20260510101537 50 68 7.0 13.9 0.00 0.00 0.00 74 1016.7
20260510101036 50 39 5.2 14.8 0.00 0.00 0.00 76 1016.7
20260510100537 49 55 5.2 14.8 0.00 0.00 0.00 75 1016.8
20260510100047 50 239 6.1 13.9 0.00 0.00 0.00 74 1016.8
20260510095535 50 79 4.3 9.6 0.00 0.00 0.00 75 1016.8
20260510095036 50 38 3.5 12.2 0.00 0.00 0.00 75 1016.8
20260510094534 50 52 6.1 12.2 0.00 0.00 0.00 74 1016.8
20260510094033 50 30 3.5 9.6 0.00 0.00 0.00 75 1016.8
20260510093532 50 69 3.5 10.4 0.00 0.00 0.00 75 1016.7
20260510093042 50 128 4.3 10.4 0.00 0.00 0.00 75 1016.8
20260510092532 49 52 4.3 11.3 0.00 0.00 0.00 76 1016.8
20260510092032 49 114 5.2 11.3 0.00 0.00 0.00 76 1016.9
20260510091536 49 77 6.1 10.4 0.00 0.00 0.00 76 1017.0
20260510091031 49 38 5.2 11.3 0.00 0.00 0.00 76 1017.0
20260510090528 49 59 5.2 11.3 0.00 0.00 0.00 76 1017.0
20260510090031 49 86 3.5 12.2 0.00 0.00 0.00 77 1017.2
20260510085527 48 52 3.5 9.6 0.00 0.00 0.00 77 1017.1
20260510085027 48 60 3.5 9.6 0.00 0.00 0.00 78 1017.2
20260510084532 48 46 4.3 10.4 0.00 0.00 0.00 79 1017.2
20260510084026 48 30 3.5 9.6 0.00 0.00 0.00 79 1017.2
20260510083528 47 77 4.3 11.3 0.00 0.00 0.00 80 1017.2
20260510083023 47 47 4.3 11.3 0.00 0.00 0.00 80 1017.3
20260510082523 47 39 4.3 11.3 0.00 0.00 0.00 80 1017.3
20260510082021 47 13 5.2 9.6 0.00 0.00 0.00 81 1017.3
20260510081525 47 66 3.5 11.3 0.00 0.00 0.00 81 1017.3
20260510081020 47 44 7.0 11.3 0.00 0.00 0.00 81 1017.3
20260510080519 47 51 3.5 11.3 0.00 0.00 0.00 82 1017.3
20260510080020 47 44 4.3 11.3 0.00 0.00 0.00 82 1017.3
20260510075519 47 67 4.3 9.6 0.00 0.00 0.00 82 1017.3
20260510075022 47 52 5.2 9.6 0.00 0.00 0.00 82 1017.3
20260510074518 47 42 2.6 8.7 0.00 0.00 0.00 83 1017.2
20260510074018 47 74 2.6 12.2 0.00 0.00 0.00 83 1017.2
20260510073518 47 43 4.3 12.2 0.00 0.00 0.00 83 1017.2
20260510073016 47 63 4.3 13.0 0.00 0.00 0.00 83 1017.1
20260510072515 47 66 6.1 13.0 0.00 0.00 0.00 83 1017.1
20260510072018 47 51 4.3 12.2 0.00 0.00 0.00 83 1017.1
20260510071519 47 46 5.2 11.3 0.00 0.00 0.00 83 1017.1
20260510071014 47 71 4.3 11.3 0.00 0.00 0.00 83 1017.1
20260510070516 47 52 6.1 12.2 0.00 0.00 0.00 83 1017.0
20260510070013 47 38 5.2 12.2 0.00 0.00 0.00 83 1017.0
20260510065512 47 63 4.3 12.2 0.00 0.00 0.00 84 1017.0
20260510065011 47 40 4.3 12.2 0.00 0.00 0.00 84 1017.0
20260510064510 47 360 3.5 13.9 0.00 0.00 0.00 84 1017.0
20260510064009 47 66 4.3 13.9 0.00 0.00 0.00 84 1017.0
20260510063511 47 52 5.2 13.9 0.00 0.00 0.00 83 1017.0
20260510063008 47 71 4.3 13.9 0.00 0.00 0.00 83 1016.9
20260510062508 47 42 4.3 12.2 0.00 0.00 0.00 83 1016.9
20260510062007 47 66 2.6 9.6 0.00 0.00 0.00 83 1016.7
20260510061507 47 39 3.5 9.6 0.00 0.00 0.00 83 1016.7
20260510061005 47 65 1.7 8.7 0.00 0.00 0.00 83 1016.8
20260510060505 47 32 2.6 11.3 0.00 0.00 0.00 83 1016.8
20260510060004 47 80 4.3 11.3 0.00 0.00 0.00 83 1016.7
20260510055503 47 59 3.5 15.6 0.00 0.00 0.00 83 1016.7
20260510055002 47 61 3.5 10.4 0.00 0.00 0.00 83 1016.7
20260510054505 47 51 3.5 12.2 0.00 0.00 0.00 83 1016.8
20260510054001 47 65 2.6 9.6 0.00 0.00 0.00 83 1016.7
20260510053502 47 77 3.5 8.7 0.00 0.00 0.00 83 1016.7
20260510053101 47 67 3.5 9.6 0.00 0.00 0.00 83 1016.7
20260510052602 47 57 3.5 10.4 0.00 0.00 0.00 83 1016.7
20260510052103 47 78 3.5 10.4 0.00 0.00 0.00 83 1016.8
20260510051559 47 38 3.5 8.7 0.00 0.00 0.00 84 1016.8
20260510051100 47 57 3.5 8.7 0.00 0.00 0.00 84 1017.0
20260510050558 47 76 0.9 7.0 0.00 0.00 0.00 84 1017.0
20260510045557 47 61 2.6 6.1 0.00 0.00 0.00 84 1017.0
20260510045057 47 64 2.6 8.7 0.00 0.00 0.00 84 1017.0
20260510044559 47 61 3.5 8.7 0.00 0.00 0.00 84 1017.0
20260510044056 47 64 3.5 8.7 0.00 0.00 0.00 84 1017.0
20260510043556 47 33 1.7 9.6 0.00 0.00 0.00 84 1016.9
20260510043058 47 38 2.6 10.4 0.00 0.00 0.00 83 1017.0
20260510042559 47 60 2.6 10.4 0.00 0.00 0.00 83 1016.9
20260510042055 47 34 3.5 9.6 0.00 0.00 0.00 83 1016.9
20260510041555 48 85 5.2 11.3 0.00 0.00 0.00 83 1016.9
20260510041055 48 70 4.3 12.2 0.00 0.00 0.00 83 1016.8
20260510040554 48 61 6.1 12.2 0.00 0.00 0.00 83 1016.8
20260510040059 47 65 5.2 12.2 0.00 0.00 0.00 84 1016.9
20260510035552 47 66 3.5 10.4 0.00 0.00 0.00 84 1016.7
20260510035052 47 94 5.2 10.4 0.00 0.00 0.00 84 1016.8
20260510034554 47 49 3.5 10.4 0.00 0.00 0.00 84 1016.8
20260510034051 47 44 2.6 11.3 0.00 0.00 0.00 84 1016.8
20260510033550 47 52 4.3 11.3 0.00 0.00 0.00 84 1016.9
20260510033111 47 59 2.6 9.6 0.00 0.00 0.00 84 1016.9
20260510032548 47 14 4.3 9.6 0.00 0.00 0.00 85 1016.9
20260510032054 47 36 2.6 8.7 0.00 0.00 0.00 85 1017.0
20260510031552 47 50 1.7 8.7 0.00 0.00 0.00 85 1017.1
20260510031046 47 44 4.3 8.7 0.00 0.00 0.00 85 1017.1
20260510030550 47 53 1.7 7.8 0.00 0.00 0.00 85 1017.2
20260510030049 47 38 1.7 7.8 0.00 0.00 0.00 85 1017.1
20260510025546 47 53 1.7 6.1 0.00 0.00 0.00 85 1017.3
20260510025046 47 51 2.6 11.3 0.00 0.00 0.00 85 1017.3
20260510024549 47 55 1.7 11.3 0.00 0.00 0.00 85 1017.3
20260510024146 47 105 3.5 8.7 0.00 0.00 0.00 85 1017.4
20260510023544 47 68 2.6 8.7 0.00 0.00 0.00 85 1017.3
20260510023045 47 32 2.6 8.7 0.00 0.00 0.00 85 1017.4
20260510022544 47 62 2.6 7.8 0.00 0.00 0.00 85 1017.3
20260510022044 47 68 2.6 7.8 0.00 0.00 0.00 85 1017.4
20260510021544 47 38 3.5 8.7 0.00 0.00 0.00 85 1017.4
20260510021043 47 61 2.6 8.7 0.00 0.00 0.00 85 1017.5
20260510020543 47 30 3.5 9.6 0.00 0.00 0.00 85 1017.5
20260510020045 47 63 2.6 12.2 0.00 0.00 0.00 85 1017.5
20260510015542 47 61 3.5 8.7 0.00 0.00 0.00 85 1017.4
20260510015041 47 57 3.5 8.7 0.00 0.00 0.00 85 1017.3
20260510014543 47 63 3.5 8.7 0.00 0.00 0.00 85 1017.4
20260510014041 47 47 1.7 11.3 0.00 0.00 0.00 84 1017.4
20260510013541 47 63 3.5 11.3 0.00 0.00 0.00 85 1017.4
20260510013041 47 53 2.6 12.2 0.00 0.00 0.00 85 1017.5
20260510012540 47 49 6.1 12.2 0.00 0.00 0.00 85 1017.6
20260510012040 47 58 3.5 10.4 0.00 0.00 0.00 85 1017.6
20260510011551 47 72 3.5 12.2 0.00 0.00 0.00 85 1017.6
20260510011038 47 39 3.5 12.2 0.00 0.00 0.00 85 1017.6
20260510010537 47 54 3.5 9.6 0.00 0.00 0.00 86 1017.6
20260510010037 47 63 2.6 9.6 0.00 0.00 0.00 86 1017.5
20260510005536 47 54 3.5 9.6 0.00 0.00 0.00 86 1017.5
20260510005038 47 13 2.6 8.7 0.00 0.00 0.00 86 1017.4
20260510004537 47 69 4.3 9.6 0.00 0.00 0.00 86 1017.3
20260510004035 47 68 3.5 9.6 0.00 0.00 0.00 86 1017.2
20260510003535 47 67 4.3 11.3 0.00 0.00 0.00 86 1017.2
20260510003058 47 68 3.5 11.3 0.00 0.00 0.00 86 1017.3
20260510002534 47 79 4.3 11.3 0.00 0.00 0.00 85 1017.2
20260510002034 47 63 4.3 9.6 0.00 0.00 0.00 85 1017.1
20260510001534 47 43 4.3 10.4 0.00 0.00 0.00 84 1017.2
20260510001032 47 60 3.5 10.4 0.00 0.00 0.00 84 1017.1
20260510000529 47 45 3.5 9.6 0.00 0.00 0.00 83 1017.1
20260510000030 47 67 4.3 9.6 0.00 0.00 0.00 83 1017.1
20260509235528 47 53 3.5 9.6 0.00 0.00 0.00 82 1017.2
20260509235027 48 70 3.5 8.7 0.00 0.00 0.00 82 1017.3
20260509234529 48 62 4.3 9.6 0.00 0.00 0.00 81 1017.2
20260509234025 48 56 4.3 9.6 0.00 0.00 0.00 80 1017.2
20260509233525 48 68 4.3 10.4 0.00 0.00 0.00 80 1017.3
20260509233024 48 61 4.3 10.4 0.00 0.00 0.00 79 1017.3
20260509232523 48 19 3.5 8.7 0.00 0.00 0.00 78 1017.3
20260509232024 49 49 3.5 9.6 0.00 0.00 0.00 77 1017.4
20260509231530 49 40 4.3 10.4 0.00 0.00 0.00 77 1017.4
20260509231024 49 71 2.6 10.4 0.00 0.00 0.00 76 1017.4
20260509230520 49 42 4.3 8.7 0.00 0.00 0.00 76 1017.4
20260509230025 49 76 3.5 8.7 0.00 0.00 0.00 75 1017.3
20260509225517 49 68 4.3 9.6 0.00 0.00 0.00 74 1017.3
20260509225016 50 55 4.3 9.6 0.00 0.00 0.00 74 1017.3
20260509224518 50 77 4.3 9.6 0.00 0.00 0.00 72 1017.2
20260509224016 50 42 3.5 8.7 0.00 0.00 0.00 70 1017.2
20260509223516 50 44 2.6 7.8 0.00 0.00 0.00 68 1017.1
20260509223016 50 50 2.6 9.6 0.00 0.00 0.00 67 1017.1
20260509222518 51 72 2.6 9.6 0.00 0.00 0.00 66 1017.2
20260509222015 51 59 1.7 7.8 0.00 0.00 0.00 64 1017.2
20260509221514 51 24 2.6 7.8 0.00 0.00 0.00 63 1017.1
20260509221014 51 45 2.6 7.0 0.00 0.00 0.00 62 1017.1
20260509220514 52 41 1.7 7.8 0.00 0.00 0.00 61 1017.1
20260509220013 52 57 2.6 9.6 0.00 0.00 0.00 60 1017.0
20260509215514 52 54 3.5 9.6 0.00 0.00 0.00 59 1016.9
20260509215013 52 77 4.3 9.6 0.00 0.00 0.00 58 1016.9
20260509214511 52 89 2.6 8.7 0.00 0.00 0.00 58 1016.9
20260509214011 53 15 2.6 10.4 0.00 0.00 0.00 57 1016.8
20260509213516 53 48 2.6 9.6 0.00 0.00 0.00 57 1016.9
20260509213012 53 31 3.5 8.7 0.00 0.00 0.00 56 1016.7
20260509212511 53 35 0.9 8.7 0.00 0.00 0.00 56 1016.7
20260509212013 53 60 3.5 8.7 0.00 0.00 0.00 55 1016.7
20260509211511 54 75 1.7 10.4 0.00 0.00 0.00 55 1016.5